www.pogodaiklimat.ru

Погода и климат >> Архив погоды >> Бельгия >> Семмерзэйк


ПОГОДА в Семмерзэйке

  • Прогноз погоды в Семмерзэйке
  • Монитор погоды в Семмерзэйке

АРХИВ ПОГОДЫ в Семмерзэйке

Время (UTC), дата Ветер
(напр.,м/с)
 
Видим.   Явления Облачность Т
(С)
Тd
(С)
f
(%)
Тe
(С)
Тes
(С)
Комфортность P
(гПа)
Po
(гПа)
Тmin
(С)
Tmax
(С)
R
(мм)
R24
(мм)
S
(см)
01 20.06 ЮЗ 3
{4}
3200 м дымка н/о +14.8 +14.1 96 +14 +14 1010.7 1006.5
06 20.06 ЮЗ 3
{9}
17 км н/о +14.6 +12.5 87 +14 +14 1011.7 1007.6 +13.6 3
07 20.06 ЮЗ 4
{7}
18 км н/о +15.8 +13.0 83 +15 +15 1011.7 1007.6
08 20.06 ЮЗ 4
{8}
19 км н/о +16.6 +13.4 81 +16 +16 1012.2 1008.0
09 20.06 З 4
{8}
20 км н/о +17.4 +13.4 77 +17 +17 1012.5 1008.2
10 20.06 ЮЗ 4
{7}
20 км н/о +17.8 +13.7 77 +18 +18 1012.7 1008.6
13 20.06 З 4
{9}
20 км н/о +19.0 +11.5 62 +20 +20 1013.7 1009.5
14 20.06 З 3
{9}
20 км н/о +19.2 +11.2 60 +20 +20 1014.1 1009.8
15 20.06 З 5
{9}
20 км н/о +20.3 +10.2 52 +22 +22 комфорт 1014.2 1010.1
16 20.06 З 4
{9}
20 км н/о +19.7 +9.2 51 +21 +21 комфорт 1014.6 1010.3
17 20.06 З 5
{9}
20 км н/о +18.7 +7.0 46 +19 +19 1015.0 1010.7
18 20.06 З 4
{9}
20 км н/о +18.2 +8.2 52 +18 +18 1015.3 1011.2 +20.8
19 20.06 З 3
{7}
20 км н/о +17.2 +9.6 61 +17 +17 1015.8 1011.7
20 20.06 ЮЗ 2
{6}
20 км н/о +15.0 +8.8 66 +15 +15 1016.3 1012.1
21 20.06 ЮЗ 2
{7}
20 км н/о +13.7 +9.1 74 +13 +13 1016.8 1012.6
22 20.06
{3}
20 км н/о +13.1 +8.8 75 1017.2 1012.8
23 20.06 ЮЗ 3
{4}
20 км н/о +11.6 +8.6 82 +10 +10 1017.6 1013.2
00 21.06 ЮЗ 2
{7}
20 км н/о +11.3 +8.8 85 +10 +10 1017.7 1013.3
01 21.06 ЮЗ 3
{4}
20 км н/о +10.9 +9.0 88 +9 +9 1017.8 1013.6
02 21.06 Ю 2
{5}
19 км н/о +10.3 +9.0 92 +9 +9 1018.1 1013.7
03 21.06 ЮЗ 2
{5}
18 км н/о +10.1 +9.1 94 +8 +8 1018.2 1013.8
04 21.06 ЮЗ 2
{4}
16 км н/о +10.3 +9.4 94 +9 +9 1018.3 1014.1
05 21.06 ЮЗ 3
{5}
19 км н/о +11.3 +9.9 91 +9 +9 1018.7 1014.3
06 21.06 ЮЗ 3
{5}
17 км н/о +12.6 +10.7 88 +11 +11 1019.2 1014.8 +9.8
07 21.06 ЮЗ 3
{6}
19 км н/о +14.3 +11.1 81 +13 +13 1019.5 1015.2
08 21.06 З 3
{5}
20 км н/о +15.6 +11.1 75 +15 +15 1019.8 1015.6
09 21.06 З 3
{6}
18 км н/о +17.6 +9.1 57 +18 +18 1020.0 1015.7
10 21.06 З 3
{6}
20 км н/о +17.2 +8.6 57 +17 +17 1020.2 1016.1
11 21.06 З 3
{6}
20 км н/о +18.5 +8.2 51 +19 +19 1020.3 1016.2
12 21.06 З 3
{6}
20 км н/о +18.1 +8.7 54 +18 +18 1020.7 1016.5
13 21.06
{6}
20 км н/о +18.4 +8.6 53 1020.8 1016.7
14 21.06 СЗ 2
{6}
20 км н/о +19.2 +8.2 49 +20 +20 1020.7 1016.6
15 21.06 СЗ 2
{6}
19 км н/о +18.7 +8.5 51 +20 +20 1020.8 1016.7
16 21.06 З 2
{5}
20 км н/о +20.0 +8.7 48 +22 +22 комфорт 1020.8 1016.7
17 21.06 С 4
{6}
20 км н/о +18.0 +8.5 54 +18 +18 1021.2 1016.8
18 21.06 С 3
{6}
20 км н/о +17.7 +7.8 52 +18 +18 1021.5 1017.2 +20.1
19 21.06 С 2
{5}
20 км н/о +16.3 +8.5 60 +16 +16 1021.8 1017.7
20 21.06 С 2
{4}
20 км н/о +14.7 +8.2 65 +14 +14 1022.2 1018.0
21 21.06 нст 1
{5}
20 км н/о +13.3 +8.2 71 +14 +14 1022.8 1018.6
22 21.06
{2}
20 км н/о +12.1 +8.3 78 1023.3 1019.1
23 21.06 С 2
{2}
19 км н/о +11.5 +8.6 82 +10 +10 1023.3 1019.0
00 22.06 нст 1
{5}
16 км н/о +10.9 +8.5 85 +11 +11 1023.3 1019.1
01 22.06
{1}
12 км н/о +9.8 +8.5 92 1023.2 1018.8
02 22.06
{2}
12 км н/о +9.6 +8.7 94 1023.0 1018.7
03 22.06 нст 1
{2}
6000 м н/о +9.6 +8.9 95 +9 +9 1023.0 1018.7
04 22.06
{1}
7000 м дымка н/о +9.5 +8.9 96 1023.0 1018.6
05 22.06
{2}
9000 м н/о +11.1 +10.0 93 1022.8 1018.6
06 22.06 СВ 2
{3}
14 км н/о +12.8 +10.5 86 +12 +12 1022.8 1018.6 +9.1
07 22.06 С 2
{4}
20 км н/о +14.5 +10.9 79 +14 +14 1022.7 1018.5
08 22.06 СВ 3
{4}
19 км н/о +16.6 +11.5 72 +16 +16 1022.6 1018.3
09 22.06 СВ 2
{4}
19 км н/о +17.8 +11.2 65 +18 +18 1022.2 1018.0
10 22.06 СВ 3
{6}
900 м н/о +19.1 +10.4 57 +20 +20 1021.8 1017.7
11 22.06 СВ 3
{6}
16 км н/о +19.8 +10.7 56 +21 +21 комфорт 1021.6 1017.3
12 22.06 В 2
{6}
20 км н/о +21.6 +11.7 53 +24 +24 комфорт 1021.2 1017.2
13 22.06 С 3
{7}
20 км н/о +20.6 +10.5 52 +23 +23 комфорт 1020.8 1016.7
14 22.06 СВ 2
{6}
19 км н/о +21.5 +11.8 54 +24 +24 комфорт 1020.6 1016.5
15 22.06 С 3
{7}
20 км н/о +21.8 +10.9 50 +24 +24 комфорт 1020.0 1015.8
16 22.06 С 3
{6}
20 км н/о +21.8 +12.1 54 +24 +24 комфорт 1019.6 1015.3
17 22.06 С 3
{6}
20 км н/о +21.5 +13.1 59 +24 +24 комфорт 1019.2 1015.0
18 22.06 С 3
{7}
20 км н/о +20.7 +12.5 59 +23 +23 комфорт 1019.1 1014.8 +22.4
19 22.06 С 3
{5}
20 км н/о +19.2 +13.1 68 +21 +21 комфорт 1019.2 1015.1
20 22.06 С 2
{6}
20 км н/о +17.3 +12.7 74 +18 +18 1019.5 1015.2
21 22.06 С 2
{6}
20 км н/о +16.3 +13.0 81 +16 +16 1020.0 1015.7
22 22.06
{4}
15 км н/о +15.3 +13.2 87 1019.8 1015.7
23 22.06 СВ 2
{3}
15 км н/о +15.5 +13.3 87 +15 +15 1019.5 1015.2
00 23.06 СВ 2
{6}
13 км н/о +14.8 +13.0 89 +14 +14 1019.3 1015.1
01 23.06 СВ 2
{3}
12 км н/о +14.6 +12.9 90 +14 +14 1019.2 1014.8
02 23.06
{4}
10 км н/о +14.1 +12.5 90 1019.0 1014.7
03 23.06 нст 2
{4}
7000 м н/о +13.8 +12.3 91 +13 +13 1018.8 1014.7
04 23.06 СВ 2
{3}
8000 м н/о +13.9 +12.4 91 +13 +13 1018.6 1014.2
05 23.06
{3}
11 км н/о +15.1 +13.1 88 1018.8 1014.6
06 23.06 СВ 2
{4}
13 км н/о +16.4 +13.7 84 +17 +17 1018.7 1014.5 +13.5
07 23.06 В 2
{4}
15 км н/о +19.0 +14.7 76 +21 +21 комфорт 1018.1 1013.8
08 23.06 В 2
{4}
3900 м н/о +21.2 +15.5 70 +24 +24 комфорт 1018.2 1014.1
09 23.06 В 2
{4}
18 км н/о +22.6 +15.4 64 +27 +27 душно 1018.1 1014.0
10 23.06 В 2
{5}
20 км н/о +24.1 +17.3 66 +28 +28 душно 1017.7 1013.6
11 23.06 В 3
{8}
19 км н/о +25.2 +15.8 56 +28 +28 жарко 1017.3 1013.3
12 23.06 В 2
{8}
20 км н/о +26.6 +17.2 56 +31 +31 душно 1017.1 1013.1
13 23.06 В 3
{7}
20 км н/о +27.3 +16.2 51 +31 +31 душно 1016.5 1012.5
14 23.06 ЮВ 3
{8}
19 км н/о +27.4 +15.5 48 +30 +30 жарко 1016.1 1012.0
15 23.06 В 2
{8}
20 км н/о +27.3 +17.2 54 +31 +31 душно 1016.0 1012.0
16 23.06 ЮВ 3
{6}
20 км н/о +27.1 +17.8 57 +32 +32 очень
душно
1015.6 1011.5
17 23.06 В 2
{5}
20 км н/о +26.8 +17.0 55 +31 +31 душно 1015.1 1011.0
18 23.06 ЮВ 2
{8}
20 км н/о +26.3 +17.8 60 +31 +31 душно 1015.5 1011.3 +28.1
19 23.06
{3}
20 км н/о +25.3 +17.7 63 1015.7 1011.6
20 23.06 В 2
{3}
15 км н/о +24.4 +17.1 64 +28 +28 душно 1015.8 1011.7
21 23.06 нст 1
{3}
20 км н/о +22.8 +16.9 69 +28 +28 душно 1016.3 1012.2
22 23.06
{3}
20 км н/о +22.7 +16.8 69 1016.6 1012.5
23 23.06
{3}
20 км н/о +22.5 +16.6 69 1017.0 1012.8
00 24.06 нст 2
{3}
20 км н/о +21.9 +16.6 72 +26 +26 душно 1016.7 1012.7
01 24.06
{4}
20 км н/о +21.7 +16.2 71 1016.7 1012.7
02 24.06 В 3
{4}
20 км н/о +20.9 +16.2 74 +25 +25 комфорт 1016.3 1012.2
03 24.06 ЮВ 3
{4}
20 км н/о +20.6 +16.2 76 +24 +24 комфорт 1016.3 1012.2
04 24.06 ЮВ 2
{4}
20 км н/о +19.9 +16.2 79 +23 +23 комфорт 1016.3 1012.2
05 24.06 ЮВ 2
{4}
20 км н/о +20.3 +16.4 78 +24 +24 комфорт 1016.3 1012.2
06 24.06 Ю 2
{5}
20 км н/о +21.7 +17.1 75 +26 +26 душно 1016.7 1012.6 +19.7
07 24.06 Ю 3
{6}
20 км н/о +23.1 +17.4 70 +28 +28 душно 1016.6 1012.5
08 24.06 ЮВ 2
{5}
19 км н/о +24.6 +18.9 71 +30 +30 очень
душно
1016.8 1012.7
09 24.06 ЮВ 2
{6}
6000 м н/о +26.2 +19.5 67 +32 +32 очень
душно
1016.8 1012.7
10 24.06 Ю 3
{5}
20 км н/о +26.9 +19.2 63 +32 +32 очень
душно
1016.7 1012.7
11 24.06 ЮВ 2
{5}
20 км н/о +28.6 +20.2 60 +35 +35 очень
душно
1016.8 1012.8
12 24.06 Ю 2
{6}
20 км н/о +28.2 +19.6 60 +34 +34 очень
душно
1017.2 1013.2
13 24.06
{5}
20 км н/о +29.1 +19.2 55 1017.2 1013.2
14 24.06 ЮЗ 2
{4}
20 км н/о +29.5 +17.2 48 +34 +34 очень
душно
1017.3 1013.3
15 24.06 нст 1
{5}
20 км н/о +29.7 +18.4 51 +35 +35 очень
душно
1017.3 1013.2
16 24.06 СЗ 4
{6}
20 км н/о +27.3 +20.6 67 +34 +34 очень
душно
1017.3 1013.2
17 24.06 С 3
{6}
20 км н/о +25.7 +20.4 73 +32 +32 очень
душно
1017.0 1013.0
18 24.06 С 3
{6}
19 км н/о +24.7 +19.4 72 +30 +30 очень
душно
1017.1 1013.0 +30.3
19 24.06
{4}
20 км н/о +23.8 +19.5 77 1017.2 1013.1
20 24.06
{2}
19 км н/о +22.6 +18.9 80 1017.5 1013.3
21 24.06 нст 1
{4}
16 км н/о +21.3 +18.7 85 +26 +26 душно 1017.5 1013.3
22 24.06 С 2
{3}
11 км н/о +20.7 +18.7 88 +25 +25 комфорт 1017.2 1013.2
23 24.06 С 2
{4}
9000 м н/о +20.2 +18.2 88 +24 +24 комфорт 1017.2 1013.1
00 25.06 С 2
{4}
5000 м н/о +19.2 +17.5 90 +22 +22 комфорт 1016.7 1012.6
01 25.06 С 2
{4}
3300 м дымка н/о +18.2 +17.2 94 +19 +19 1016.3 1012.2
02 25.06
{3}
2400 м дымка н/о +18.0 +17.0 94 1015.8 1011.7
03 25.06 нст 1
{4}
2200 м дымка н/о +18.1 +17.3 95 +19 +19 1015.3 1011.2
04 25.06
{1}
1900 м дымка н/о +18.0 +17.5 97 1015.5 1011.2
05 25.06
{1}
2000 м дымка н/о +18.2 +17.5 96 1015.1 1010.8
06 25.06 нст 1
{4}
2800 м дымка н/о +21.3 +18.7 85 +26 +26 душно 1015.2 1011.0 +17.7
07 25.06
{2}
8000 м н/о +24.3 +19.7 76 1015.1 1011.0
08 25.06 ЮВ 2
{4}
20 км н/о +26.0 +19.9 69 +32 +32 очень
душно
1015.1 1011.0
09 25.06 Ю 3
{5}
20 км н/о +26.1 +19.5 67 +32 +32 очень
душно
1015.2 1011.2
10 25.06 Ю 3
{5}
20 км н/о +27.9 +20.3 63 +34 +34 очень
душно
1015.3 1011.3
11 25.06 Ю 2
{5}
16 км н/о +29.4 +21.2 61 +37 +37 очень
душно
1015.7 1011.7
12 25.06 Ю 4
{6}
20 км н/о +29.8 +21.1 60 +37 +37 очень
душно
1016.0 1012.0
13 25.06 Ю 4
{6}
20 км н/о +30.2 +21.2 59 +38 +38 очень
душно
1016.0 1012.0
14 25.06 ЮЗ 4
{7}
19 км н/о +30.7 +21.4 58 +39 +39 очень
душно
1016.5 1012.5
15 25.06 ЮЗ 4
{8}
20 км н/о +30.5 +19.7 53 +37 +37 очень
душно
1016.8 1012.8
16 25.06 ЮЗ 4
{8}
20 км н/о +29.9 +21.8 62 +38 +38 очень
душно
1017.2 1013.2
17 25.06 З 4
{7}
12 км н/о +28.5 +21.5 66 +36 +36 очень
душно
1018.1 1014.0
18 25.06 СЗ 3
{8}
11 км н/о +25.1 +19.5 71 +30 +30 душно 1019.2 1015.1 +30.8
19 25.06 З 2
{5}
8000 м н/о +23.7 +18.5 73 +28 +28 душно 1019.8 1015.7
20 25.06 З 2
{5}
5000 м н/о +21.0 +17.4 80 +26 +26 душно 1020.7 1016.7
21 25.06 СЗ 2
{5}
4100 м дымка н/о +19.3 +16.7 85 +22 +22 комфорт 1021.6 1017.3
22 25.06 СЗ 2
{5}
4000 м дымка н/о +18.2 +16.4 89 +19 +19 1021.8 1017.7
23 25.06 СЗ 2
{4}
3300 м дымка н/о +17.5 +16.1 91 +18 +18 1022.1 1017.8
00 26.06 нст 1
{5}
2500 м дымка н/о +16.8 +15.9 94 +18 +18 1022.5 1018.2
01 26.06 СЗ 2
{4}
1900 м дымка н/о +16.5 +15.9 96 +17 +17 1022.8 1018.7
02 26.06 СЗ 3
{5}
1800 м дымка н/о +16.5 +16.0 97 +16 +16 1023.2 1019.0
03 26.06 СЗ 2
{5}
1800 м дымка н/о +16.1 +15.6 97 +16 +16 1023.6 1019.3
04 26.06 С 2
{6}
2300 м дымка н/о +15.6 +15.1 97 +15 +15 1024.0 1019.8
05 26.06 С 3
{5}
2400 м дымка н/о +15.6 +15.2 97 +15 +15 1024.5 1020.3
06 26.06 С 2
{6}
3900 м дымка н/о +16.1 +15.4 96 +16 +16 1025.2 1021.0 +15.6
07 26.06 С 3
{5}
4200 м дымка н/о +16.0 +15.2 95 +15 +15 1025.7 1021.6
08 26.06 С 4
{5}
6000 м н/о +16.7 +15.2 91 +16 +16 1026.0 1021.7
09 26.06 С 3
{6}
7000 м н/о +17.7 +15.5 87 +18 +18 1026.5 1022.3
10 26.06 С 2
{5}
6000 м н/о +19.2 +16.1 82 +21 +21 комфорт 1026.5 1022.3
11 26.06 СВ 4
{6}
12 км н/о +22.0 +16.9 73 +26 +26 душно 1026.2 1022.2
12 26.06 С 5
{7}
11 км н/о +22.1 +17.6 76 +27 +27 душно 1026.9 1022.7
13 26.06 С 5
{9}
8000 м н/о +20.7 +17.1 80 +24 +24 комфорт 1026.5 1022.3
14 26.06 С 4
{8}
9000 м н/о +21.6 +17.4 77 +26 +26 душно 1026.2 1022.0
15 26.06 С 5
{9}
12 км н/о +22.0 +17.9 78 +27 +27 душно 1025.9 1021.7
16 26.06 С 5
{9}
13 км н/о +22.3 +17.6 75 +27 +27 душно 1025.5 1021.3
17 26.06 С 5
{9}
15 км н/о +22.1 +17.4 75 +27 +27 душно 1025.4 1021.2
18 26.06 С 4
{9}
16 км н/о +21.2 +17.2 78 +25 +25 комфорт 1025.7 1021.6 +22.8
19 26.06 С 4
{7}
15 км н/о +20.3 +16.7 80 +23 +23 комфорт 1026.0 1021.7
20 26.06 С 3
{7}
17 км н/о +18.3 +15.6 84 +19 +19 1026.5 1022.3
21 26.06 С 2
{7}
14 км н/о +17.5 +15.4 87 +18 +18 1027.2 1023.0
22 26.06 С 2
{4}
11 км н/о +16.7 +15.1 90 +17 +17 1027.5 1023.2
23 26.06 СВ 4
{7}
15 км н/о +16.7 +14.9 89 +16 +16 1027.5 1023.2

 

Местоположение метеостанции Семмерзэйк (Бельгия): широта 50.93 долгота 3.67 высота над уровнем моря 37 м.

В архиве по умолчанию представлена погода в Семмерзэйке за последнюю неделю. Архивные данные за месяц целиком и за предыдущие месяцы, начиная с января 2011 года, Вы можете получить, выбрав интересующий диапазон дат из раскрывающегося списка и нажав кнопку "Ввод!".


*Определитесь, кто Вы:
робот инопланетянин человек

Внимание! Время в таблицах - всемирное. Для получения местного времени необходимо прибавить поправку, которая равна 1 ч.

Смотрите также архив погоды в соседних городах и на ближайших метеорологических станциях:

Погода в Мелле (Бельгия) (12 км)
Погода в Генте (Бельгия) (30 км)
Погода в Вестдорпе (Нидерланды) (36 км)
Погода в Бейтеме (Бельгия) (39 км)
Погода в Шьевре (Бельгия) (42 км)
Погода в Уккеле (Бельгия) (50 км)
Погода в Хуфдплате (Нидерланды) (50 км)
Погода в Цадзанде (Нидерланды) (54 км)
Погода в Зебрюгге (Бельгия) (55 км)
Погода в Лилле (Франция) (57 км)

Пояснения к столбцам:

Ветер - указаны скорость ветра в м/с - средняя за 10 мин, порывы в срок и между сроками (в фигурных скобках) и направление, откуда дует ветер: С - северный, СВ - северо-восточный, В - восточный, ЮВ - юго-восточный, Ю - южный, ЮЗ - юго-западный, З - западный, СЗ - северо-западный.
Видимость - горизонтальная дальность видимости в метрах или километрах. При видимости от 1 до 10 км при отсутствии осадков обычно наблюдается дымка, при ухудшении видимости до 1 км и менее - туман. В сухую погоду видимость может ухудшаться дымом, пылью или мглою.
Явления - указаны атмосферные явления, наблюдавшиеся в срок или в последний час перед сроком; фигурными скобками обозначены явления, наблюдавшиеся между сроками (за 1-3 часа до срока); квадратными скобками обозначены град или гололедные отложения с указанием их диаметра в мм.
Облачность - указаны через наклонную черту общая и нижняя облачность в баллах и высота нижней границы облаков в метрах; квадратными скобками обозначены формы облаков: Ci - перистые, Cs - перисто-слоистые, Cc - перисто-кучевые, Ac - высококучевые, As - высокослоистые, Sc - слоисто-кучевые, Ns - слоисто-дождевые, Cu - кучевые, Cb - кучево-дождевые. Подробнее классификацию облаков см. в Атласе облаков (PDF).
T - Температура воздуха - температура, измеренная на высоте 2 м над землей.
Td - Температура точки росы - температура, при понижении до которой содержащийся в воздухе водяной пар достигнет насыщения.
f - Относительная влажность воздуха - влажноcть воздуха, измеренная на высоте 2 м над землей.
Te - Эффективная температура - температура, которую ощущает одетый по сезону человек в тени. Характеристика душности погоды. При расчете учитывается влияние влажности воздуха и скорости ветра на теплоощущения человека.
Tes - Эффективная температура на солнце - температура, которую ощущает человек, с поправкой на солнечный нагрев. Характеристика знойности погоды. Зависит от высоты солнца над горизонтом, облачности и скорости ветра. Ночью, в пасмурную погоду, а также при ветре 12 м/с и более поправка равна нулю.
P - Атмосферное давление - приведенное к уровню моря атмосферное давление.
Po - Атмосферное давление - измеренное на уровне метеостанции атмосферное давление.
Tmin - Минимальная температура - минимум температуры воздуха на высоте 2 м над землей.
Tmax - Максимальная температура - максимум температуры воздуха на высоте 2 м над землей.
R - Количество осадков - Количество выпавших осадков за период времени, мм. При наведении курсора мыши на число - период времени, за который выпало указанное количество осадков.
R24 - Количество осадков - Количество выпавших осадков за 24 часа, мм.
S - Снежный покров - Высота снежного покрова, см. При наведении курсора мыши на число - состояние снежного покрова и степень покрытия местности в баллах.